📊 Raw Sensor Data
Showing records 33376 to 33400 of 84,771 total
| ID | Distance (ft) | Battery V | Battery A | Int Temp (°F) | Int Humid (%) | Ext Temp (°F) | Solar V | RSSI | SNR | Time Stamp |
|---|---|---|---|---|---|---|---|---|---|---|
| 51408 | 15.0 | 4.00 | 5 | 80 | 41 | 80 | 5.10 | -73 | 8 | 09/08/2025 10:45 AM |
| 51407 | 15.0 | 4.00 | 0 | 79 | 41 | 79 | 5.10 | -73 | 8 | 09/08/2025 10:30 AM |
| 51406 | 15.1 | 4.12 | 6 | 78 | 41 | 79 | 5.10 | -73 | 7 | 09/08/2025 10:15 AM |
| 51405 | 15.1 | 4.09 | 6 | 75 | 41 | 78 | 5.10 | -72 | 7 | 09/08/2025 09:45 AM |
| 51404 | 15.1 | 3.99 | 6 | 73 | 41 | 78 | 5.10 | -73 | 8 | 09/08/2025 09:30 AM |
| 51403 | 15.1 | 3.99 | 6 | 72 | 41 | 76 | 5.10 | -72 | 8 | 09/08/2025 09:15 AM |
| 51402 | 15.0 | 3.99 | 0 | 70 | 41 | 76 | 5.10 | -73 | 8 | 09/08/2025 09:00 AM |
| 51401 | 15.0 | 3.99 | 0 | 68 | 41 | 74 | 5.10 | -71 | 8 | 09/08/2025 08:45 AM |
| 51400 | 15.0 | 3.99 | 6 | 67 | 41 | 72 | 5.10 | -72 | 8 | 09/08/2025 08:30 AM |
| 51399 | 14.9 | 4.00 | 6 | 65 | 42 | 71 | 5.10 | -72 | 7 | 09/08/2025 08:15 AM |
| 51398 | 14.9 | 4.13 | 85 | 64 | 42 | 70 | 4.50 | -70 | 8 | 09/08/2025 08:00 AM |
| 51397 | 14.8 | 4.05 | 40 | 62 | 42 | 69 | 4.50 | -72 | 8 | 09/08/2025 07:45 AM |
| 51396 | 14.9 | 3.99 | 25 | 61 | 42 | 67 | 4.50 | -71 | 8 | 09/08/2025 07:30 AM |
| 51395 | 14.9 | 4.00 | 7 | 59 | 43 | 64 | 4.50 | -72 | 7 | 09/08/2025 07:15 AM |
| 51394 | 14.8 | 3.97 | -6 | 58 | 43 | 62 | 4.50 | -71 | 7 | 09/08/2025 07:00 AM |
| 51393 | 14.8 | 3.92 | -35 | 57 | 43 | 59 | 4.20 | -72 | 7 | 09/08/2025 06:45 AM |
| 51392 | 14.8 | 3.92 | -5 | 57 | 43 | 59 | 1.30 | -71 | 8 | 09/08/2025 06:30 AM |
| 51391 | 14.8 | 3.92 | -5 | 57 | 43 | 58 | 0.00 | -71 | 7 | 09/08/2025 06:15 AM |
| 51390 | 14.8 | 3.98 | -5 | 57 | 43 | 58 | 0.00 | -71 | 8 | 09/08/2025 06:00 AM |
| 51389 | 14.8 | 3.92 | -5 | 56 | 43 | 58 | 0.00 | -72 | 8 | 09/08/2025 05:45 AM |
| 51388 | 14.9 | 3.92 | -5 | 56 | 43 | 57 | 0.00 | -71 | 8 | 09/08/2025 05:30 AM |
| 51387 | 14.9 | 3.98 | -5 | 57 | 43 | 57 | 0.00 | -72 | 7 | 09/08/2025 05:15 AM |
| 51386 | 14.9 | 3.98 | -5 | 57 | 43 | 59 | 0.10 | -71 | 8 | 09/08/2025 05:00 AM |
| 51385 | 14.9 | 3.93 | -5 | 56 | 43 | 58 | 0.00 | -71 | 8 | 09/08/2025 04:45 AM |
| 51384 | 14.9 | 3.93 | -5 | 56 | 43 | 58 | 0.00 | -72 | 8 | 09/08/2025 04:30 AM |